Tracking 19283 objects as of 18-Nov-2018
HD Live streaming from Space Station
objects crossing your sky now

ORBCOMM FM 107

Track ORBCOMM FM 107 now!
10-day predictions
ORBCOMM FM 107 is classified as:


NORAD ID: 40087
Int'l Code: 2014-040B
Perigee: 716.0 km
Apogee: 718.7 km
Inclination: 47.0 °
Period: 99.0 minutes
Semi major axis: 7088 km
RCS: Unknown
Launch date: July 14, 2014
Source: United States (US)
Launch site: AIR FORCE EASTERN TEST RANGE (AFETR)
aabbcc
Your satellite tracking list
Your tracking list is empty




NASA's NSSDC Master Catalog

Two Line Element Set (TLE):
1 40087U 14040B   18321.58334268 -.00000000 +00000-0 +38315-4 0  9997
2 40087 047.0046 160.5763 0001888 126.9299 233.1758 14.54742643231031
Source of the keplerian elements: AFSPC